Home > Weather > Cartagena > Past weeks

Flag for Colombia Weather for the Past 2 Weeks in Cartagena, Colombia

Now
84 °F

Passing clouds.


Feels Like: 96 °F
Forecast: 83 / 91 °F
Wind: 6 mph from Northeast

Location: Cartagena / Rafael Nunez

Current Time: May 4, 2016 at 10:55:40 PM

Latest Report: May 4, 2016 at 10:00 PM


Visibility: N/A

Pressure: 29.84 "Hg

Humidity: 84%

Dew Point: 79 °F

Location of CartagenaLocation

Historic Weather in Cartagena — Graph

°F

Cartagena Temperature Yesterday

Maximum temperature yesterday: 91 °F (at 2:00 PM)
Minimum temperature yesterday: 79 °F (at 3:00 AM)
Average temperature yesterday: 84 °F

High & Low Weather Summary for the Past Weeks

 TemperatureHumidityPressure
High91 °F (Apr 22, 10:00 AM)100% (Apr 25, 4:00 PM)29.93 "Hg (Apr 25, 4:00 PM)
Low73 °F (May 2, 6:00 AM)23% (Apr 23, 2:00 AM)29.67 "Hg (Apr 26, 4:00 PM)
Average84 °F83%29.80 "Hg
* Reported Apr 19 10:00 PM — May 4 10:00 PM, Cartagena, Weather by CustomWeather, © 2016

Note: Actual official high and low records may vary slightly from our data, if they occured in-between our weather recording intervals... More about our weather records

Advertising

Cartagena Weather History for the Previous 24 Hours

Scroll right to see more
 ConditionsComfort  
Time TempWeatherWind HumidityBarometerVisibility
10:00 PM
Wed, May 4
84 °FPassing clouds.6 mph84%29.84 "HgN/A
9:00 PM84 °FPassing clouds.6 mph84%29.83 "HgN/A
8:00 PM84 °FPassing clouds.7 mph94%29.81 "HgN/A
7:00 PM86 °FPassing clouds.10 mph79%29.79 "HgN/A
6:00 PM86 °FPassing clouds.9 mph79%29.76 "HgN/A
5:00 PM88 °FScattered clouds.12 mph75%29.75 "HgN/A
4:00 PM88 °FScattered clouds.9 mph75%29.76 "HgN/A
3:00 PM90 °FScattered clouds.9 mph71%29.77 "HgN/A
2:00 PM88 °FScattered showers. Passing clouds.6 mph75%29.81 "HgN/A
1:00 PM91 °FPassing clouds.9 mph67%29.82 "HgN/A
12:00 PM91 °FPassing clouds.9 mph67%29.86 "HgN/A
11:00 AM91 °FPassing clouds.13 mph63%29.88 "HgN/A
10:00 AM90 °FPassing clouds.9 mph71%29.89 "HgN/A
9:00 AM90 °FPassing clouds.3 mph71%29.90 "HgN/A
8:00 AM86 °FScattered clouds.5 mph84%29.90 "HgN/A
7:00 AM82 °FPassing clouds.No wind94%29.88 "HgN/A
6:00 AM81 °FScattered clouds.5 mph94%29.87 "HgN/A
5:00 AM81 °FPassing clouds.2 mph94%29.84 "HgN/A
4:00 AM81 °FPassing clouds.5 mph89%29.84 "HgN/A
3:00 AM81 °FPassing clouds.2 mph89%29.84 "HgN/A
2:00 AM82 °FPassing clouds.2 mph84%29.85 "HgN/A
1:00 AM82 °FPassing clouds.5 mph89%29.87 "HgN/A
12:00 AM82 °FPassing clouds.6 mph89%29.89 "HgN/A
11:00 PM
Tue, May 3
82 °FPassing clouds.7 mph84%29.91 "HgN/A
10:00 PM84 °FPassing clouds.3 mph84%29.91 "HgN/A
Weather by CustomWeather, © 2016

See weather overviewHow to use our weather pages